C/1998 W3 (LINEAR)                                                    

Epoch 1998 Sept. 24.0 TT = JDT 2451080.5  

T 1998 Oct. 6.74690 TT                                  Nakano

q   4.9145984            (2000.0)            P               Q

z  -0.0002470      Peri.    6.89075     -0.49107030     +0.58754356

 +/-0.0000028      Node   123.91861     +0.75768269     -0.07622667

e   1.0012139      Incl.  129.19154     +0.42984521     +0.80559423

From 161 observations 1998 Nov. 25-2000 Mar. 10, mean residual 0".55.

Residuals in seconds of arc 

1998/                     981219 355  0.5-  1.0+    990206 355  0.3+  0.2+  

981125 704  0.0   0.8-    981219 355  1.3-  0.4-    990206 355  0.2+  0.6-  

981125 704  1.1+  0.8-    981219 355  0.8-  0.6-    990206 355  0.4+  0.2+  

981125 704  0.1-  0.7+    981221 360  0.4-  0.4-    990206 402  0.1-  0.6+  

981125 704  0.0   0.4-    981221 360  0.4-  0.2-    990206 402  0.4+  0.1+  

981125 704  0.2-  0.4+    981221 360  0.5-  0.3-    990206 402  0.3+  0.7+  

981126 734 (2.6+  3.3-)   981224 355  0.2+  0.0     990208 704  0.1+  0.1-  

981126 734  1.0+  1.2-    981224 355  0.7-  0.6-    990208 704  0.8+  0.0   

981126 734  0.8-  0.6-    981224 355  0.8-  0.4+    990208 704  1.8+  0.5+  

981127 747  0.3+  1.8+    981227 402  0.1+  0.5-    990208 704  0.5-  1.3-  

981127 747  0.9-  0.9+    981227 402  0.1-  0.0     990214 360  0.0   0.1-  

981127 747  0.5+  0.4+    981227 402  0.5-  0.1-    990214 360  0.1+  0.1-  

981128 046  0.0   0.4-    1999/                     990216 402  0.0   0.5-  

981128 046  0.0   0.4-    990108 355  0.5+  0.5-    990216 402  0.1+  0.7-  

981128 046  0.1+  0.1+    990108 355  0.0   0.3-    990216 402  0.1-  0.2-  

981128 046  0.3+  0.3-    990108 355  0.1+  0.2+    990216 071  0.3+  0.0   

981128 046  0.4+  0.3-    990115 693  0.1+  0.2+    990216 071  1.2-  0.2-  

981128 046  0.1-  0.3-    990115 693  0.5+  0.7-    990216 071  0.3+  0.9+  

981128 411  0.9+  0.1-    990115 693  0.4+  0.7-    990216 071  0.1+  0.2+  

981128 411  0.2+  0.6+    990117 367  0.1+  0.4-    990216 071  0.0   0.6+  

981128 411  0.4+  0.5+    990117 367  0.7-  0.3-    990219 402  0.1+  0.0   

981128 900  0.0   0.4-    990117 367  0.1+  0.2+    990219 402  0.4+  0.1-  

981128 900  0.2+  0.3-    990117 402  0.6+  0.2+    990219 402  0.3+  0.4-  

981129 402  0.9+  0.6-    990117 402  0.4-  0.0     990222 402  0.6+  0.7+  

981129 402  0.0   0.7-    990117 402  0.2+  0.0     990222 402  0.0   0.6+  

981129 402  0.1+  0.5-    990118 113  0.9-  0.1-    990222 402  0.1-  0.9+  

981203 097  0.7+  1.2-    990118 113  1.2-  0.2-    990303 402  1.4+  0.1+  

981204 097  1.0+  0.8-    990118 113  0.1-  0.0     990303 402  0.7-  0.6-  

981204 046  1.9+  0.0     990118 118  0.5-  0.0     990303 402  0.5+  0.5-  

981204 046  1.7+  0.1+    990118 143  0.3+  0.4-    990308 118  0.1-  0.4-  

981204 046  0.7+  0.7-    990118 118  0.1-  0.2+    990308 118  0.2+  0.1-  

981211 897  0.5-  0.7+    990118 143  1.4+  0.1+    990312 113  0.1-  0.2-  

981211 897  0.4+  0.1+    990119 704  0.1+  0.2+    990312 113  0.2+  0.4+  

981211 372  0.3-  0.3+    990119 704  0.1+  0.4+    990406 402  0.8+  0.4-  

981212 372  0.2-  0.5+    990119 704  0.2-  0.8+    990408 402 (3.6+  1.0+) 

981212 402  0.0   0.4+    990119 704  0.1-  0.1+    990409 402 (1.9-  3.7+) 

981212 402  0.1+  0.0     990119 704  0.1+  0.6+    990913 557  0.2+  1.1+  

981212 402  0.1-  0.0     990121 355  0.1+  0.4+    990913 557  0.1+  0.2+  

981213 355  0.6-  0.5+    990121 355  0.3+  0.3-    990913 557  0.3-  0.2+  

981213 355  0.2-  0.3+    990121 355  0.1+  0.1-    990913 557  0.3-  0.6+  

981213 355  0.1+  0.4-    990121 360  0.2-  0.2-    991020 402  1.8+  0.2-  

981213 372  0.6+  1.1+    990121 360  0.1-  0.0     991020 402  0.1+  0.3+  

981216 046  0.2+  0.7+    990122 046  0.0   0.4+    991020 402  0.3-  0.2-  

981216 046  0.1+  0.5+    990122 046  0.1-  0.1+    991116 360  0.5-  0.1-  

981216 046  0.1-  0.4+    990122 046  0.1-  0.2+    991116 360  0.2-  0.5-  

981216 360  0.2-  0.3+    990122 900  0.4-  0.1-    991116 360  0.3-  0.1-  

981216 360  0.1-  0.2+    990122 900  1.2-  0.1+    991228 704  0.5-  0.6-  

981216 372  1.4-  0.8+    990123 504  0.0   0.4-    991228 704  1.1+  0.4+  

981216 360  0.2-  0.2+    990123 504  0.3-  0.2+    991228 704  1.9+  0.3-  

981217 372  0.7+  0.2+    990123 504  0.2-  0.1-    2000/                   

981217 113  1.3-  0.8+    990123 504  0.2+  0.4-    000125 402  0.8-  0.3+  

981217 113 (0.6-  2.1+)   990126 402  0.5-  1.1-    000125 402  0.8-  0.1-  

981217 113  1.5-  0.7+    990126 402  0.7-  0.2+    000125 402  0.2-  0.1+  

981218 402  0.1-  0.3+    990126 402  0.6-  0.3+    000310 461  0.4-  0.4-  

981218 402  0.2-  0.1+    990126 360  0.9-  0.3-    000310 461  0.2-  0.3-  

981218 402  0.4-  0.0     990126 360  0.5-  0.5-    000310 461  0.1-  0.1+  



NAKANO

         **** Don't distribute anyone except personal use only ****

                (C) Copyright 2001 OAA/ComputingSection

write mail from CFAD0::NAKANO on 2001-12-24 03:27:27(JST).

 

    C/1998 W3 (LINEAR)

Epoch 1998 Sept. 24.0 TT = JDT 2451080.5  

T 1998 Oct. 6.73961 TT                                  Nakano

q   4.9145911            (2000.0)            P               Q

z  -0.0002508      Peri.    6.88972     -0.49108003     +0.58753342

 +/-0.0000046      Node   123.91854     +0.75768440     -0.07621531

e   1.0012326      Incl.  129.19140     +0.42983107     +0.80560270

From 144 observations 1998 Nov. 25-1999 Oct. 20, mean residual 0".55.



NAKANO

         **** Don't distribute anyone except personal use only ****

                (C) Copyright 1999 OAA/ComputingSection

write mail from CFAD0::NAKANO on 1999-10-26 05:12:24(JST).



    C/1998 W3 (LINEAR) 

Epoch 1998 Sept. 24.0 TT = JDT 2451080.5  

T 1998 Oct. 6.69250 TT                                  Nakano

q   4.9146586            (2000.0)            P               Q

z  -0.0003219      Peri.    6.88372     -0.49115294     +0.58750016

 +/-0.0000314      Node   123.91947     +0.75768776     -0.07610479

e   1.0015822      Incl.  129.19339     +0.42974184     +0.80563740

From 129 observations 1998 Nov. 25-1999 Apr. 6, mean residual 0".51.



    C/1998 W3 (LINEAR) 

Epoch 1998 Sept. 24.0 TT = JDT 2451080.5  

T 1998 Oct. 6.70799 TT                                  Nakano

q   4.9147550            (2000.0)            P               Q

z  -0.0003621      Peri.    6.88585     -0.49113863     +0.58752954

 +/-0.0000372      Node   123.92008     +0.75768185     -0.07611331

e   1.0017798      Incl.  129.19463     +0.42976862     +0.80561517

From 128 observations 1998 Nov. 25-1999 Mar. 12, mean residual 0".51.





    C/1998 W3 (LINEAR) 

Epoch 1998 Sept. 24.0 TT = JDT 2451080.5  

T 1998 Oct. 6.71844 TT                                  Nakano

q   4.9148402            (2000.0)            P               Q

z  -0.0004004      Peri.    6.88728     -0.49113042     +0.58755126

 +/-0.0000495      Node   123.92060     +0.75767726     -0.07611552

e   1.0019677      Incl.  129.19568     +0.42978609     +0.80559912

From 116 observations 1998 Nov. 25-1999 Feb. 22, mean residual 0".50.







    C/1998 W3 (LINEAR) 

T 1998 Oct. 6.36428 TT                                  Nakano

q   4.9137606            (2000.0)            P               Q

                   Peri.    6.84008     -0.49153661     +0.58701421

                   Node   123.91418     +0.75777084     -0.07571312

e   1.0            Incl.  129.18130     +0.42915629     +0.80602844

From 92 observations 1998 Nov. 25-1999 Jan. 26.



    C/1998 W3 (LINEAR) 

T 1998 Oct. 6.20461 TT                                  Nakano

q   4.9136324            (2000.0)            P               Q

                   Peri.    6.81976     -0.49174838     +0.58685033

                   Node   123.91452     +0.75779642     -0.07542926

e   1.0            Incl.  129.18237     +0.42886842     +0.80617437

From 57 observations 1998 Nov. 25-Dec. 27.

NAKANO

         **** Don't distribute anyone except personal use only ****

                (C) Copyright 1998 OAA/ComputingSection

write mail from CFAD0::NAKANO on 1998-12-19 19:44:20(JST).

 





    C/1998 W3 (LINEAR) 

T 1998 Oct. 9.13415 TT                                  Nakano

q   4.9157477            (2000.0)            P               Q

                   Peri.    7.20090     -0.48791859     +0.59032997

                   Node   123.92225     +0.75724990     -0.08013887

e   1.0            Incl.  129.20523     +0.43417512     +0.80317388

From 40 observations 1998 Nov. 25-Dec. 16.





    C/1998 W3 (LINEAR) 

T 1998 Sept. 29.00384 TT                                Nakano

q   4.9093112            (2000.0)            P               Q

                   Peri.    5.88139     -0.50105803     +0.57799726

                   Node   123.89327     +0.75901564     -0.06403059

e   1.0            Incl.  129.10904     +0.41573563     +0.81352274

From 29 observations 1998 Nov. 25-Dec. 4.



–ß‚è‚Ü‚·B